Ames, IA

12:38 AM CDT on May 01, 2017 (GMT -0500)
Ames Municipal

Weather History for KAMW - August, 2014

Change the Weather History Date:

Thursday, August 7, 2014

  Actual Average Record
Temperature  
Mean Temperature 69 °F 72 °F  
Max Temperature 71 °F 83 °F 91 °F (2001)
Min Temperature 67 °F 62 °F 50 °F (2005)
Degree Days  
Heating Degree Days 0 0  
Month to date heating degree days 0 0  
Since 1 June heating degree days 16 28  
Since 1 July heating degree days 12 4  
Cooling Degree Days 4 8  
Month to date cooling degree days 36 56  
Year to date cooling degree days 417 542  
Since 1 June cooling degree days 340 493  
Growing Degree Days 18 (Base 50)    
Moisture  
Dew Point 66 °F    
Average Humidity 92    
Maximum Humidity 100    
Minimum Humidity 84    
Precipitation  
Precipitation 0.18 in 0.15 in 1.20 in (1999)
Month to date precipitation 1.27 1.04  
Sea Level Pressure  
Sea Level Pressure 29.98 in    
Wind  
Wind Speed 7 mph (East)    
Max Wind Speed 13 mph    
Max Gust Speed 19 mph    
Visibility 5 miles    
Events Rain    
T = Trace of Precipitation, MM = Missing Value Source: NWS Daily Summary

Daily Weather History Graph

Daily Weather History Graph

Search for Another Location

Airport or City:

Trip Planner

Search our weather history database for the weather conditions in past years. The results will help you decide how hot, cold, wet, or windy it might be!

Date:

Astronomy

Aug. 07, 2014 Rise Set
Actual Time 6:14 AM CDT 8:25 PM CDT
Civil Twilight 5:43 AM CDT 8:56 PM CDT
Nautical Twilight 5:05 AM CDT 9:34 PM CDT
Astronomical Twilight 4:23 AM CDT 10:15 PM CDT
Moon 5:43 PM CDT (8/7) 2:44 AM CDT (8/7)
Length of Visible Light 15h 13m
Length of Day
14h 11m
Waxing Gibbous, 87% of the Moon is Illuminated
Aug 7
Waxing Gibbous
Aug 10
Full
Aug 17
Last Quarter
Aug 25
New
Sep 2
First Quarter

Hourly Weather History & Observations

Time (CDT) Temp. Dew Point Humidity Pressure Visibility Wind Dir Wind Speed Gust Speed Precip Events Conditions
12:53 AM 68.0 °F 66.9 °F 96% 29.99 in 4.0 mi East 5.8 mph - N/A   Overcast
1:53 AM 68.0 °F 66.0 °F 93% 29.98 in 4.0 mi East 5.8 mph - N/A   Overcast
2:53 AM 68.0 °F 66.0 °F 93% 29.97 in 3.0 mi East 6.9 mph - N/A   Overcast
3:34 AM 68.0 °F 66.0 °F 93% 29.99 in 3.0 mi East 5.8 mph - N/A   Overcast
3:41 AM 68.0 °F 66.0 °F 93% 29.99 in 3.0 mi East 8.1 mph - N/A   Overcast
3:53 AM 68.0 °F 66.0 °F 93% 29.96 in 3.0 mi East 6.9 mph - N/A   Overcast
4:08 AM 68.0 °F 66.0 °F 93% 29.98 in 3.0 mi East 5.8 mph - N/A   Overcast
4:21 AM 68.0 °F 66.0 °F 93% 29.98 in 3.0 mi East 5.8 mph - N/A   Overcast
4:53 AM 68.0 °F 66.0 °F 93% 29.96 in 4.0 mi East 5.8 mph - N/A   Overcast
5:53 AM 68.0 °F 66.0 °F 93% 29.96 in 4.0 mi East 6.9 mph - N/A   Overcast
6:43 AM 66.9 °F 66.0 °F 97% 29.99 in 2.5 mi East 8.1 mph - N/A   Overcast
6:53 AM 66.9 °F 66.0 °F 97% 29.97 in 3.0 mi East 6.9 mph - N/A   Overcast
7:27 AM 66.9 °F 64.9 °F 93% 29.98 in 4.0 mi East 8.1 mph - N/A   Overcast
7:43 AM 68.0 °F 64.9 °F 90% 29.98 in 4.0 mi East 8.1 mph - N/A   Overcast
7:53 AM 68.0 °F 64.9 °F 90% 29.96 in 4.0 mi East 5.8 mph - N/A   Overcast
8:53 AM 68.0 °F 64.9 °F 90% 29.97 in 6.0 mi East 6.9 mph - N/A   Overcast
9:53 AM 68.0 °F 64.9 °F 90% 29.98 in 6.0 mi ESE 6.9 mph 17.3 mph N/A   Overcast
10:53 AM 69.1 °F 64.9 °F 87% 29.98 in 8.0 mi East 9.2 mph - N/A   Overcast
11:23 AM 69.1 °F 64.0 °F 84% 30.00 in 9.0 mi East 9.2 mph - N/A   Overcast
11:53 AM 69.1 °F 64.0 °F 84% 29.98 in 10.0 mi ESE 8.1 mph - N/A   Overcast
12:53 PM 69.1 °F 64.0 °F 84% 29.97 in 8.0 mi East 6.9 mph - N/A   Overcast
1:53 PM 70.0 °F 64.0 °F 81% 29.97 in 10.0 mi ESE 11.5 mph - N/A   Overcast
2:53 PM 68.0 °F 66.0 °F 93% 29.97 in 1.0 mi ESE 6.9 mph - 0.03 in Rain Light Rain
3:39 PM 68.0 °F 68.0 °F 100% 29.99 in 0.8 mi ESE 3.5 mph - 0.09 in Rain Rain
3:53 PM 68.0 °F 68.0 °F 100% 29.97 in 1.0 mi East 3.5 mph - 0.12 in Rain Light Rain
4:37 PM 69.1 °F 69.1 °F 100% 29.98 in 3.0 mi ENE 3.5 mph - 0.03 in   Overcast
4:53 PM 69.1 °F 69.1 °F 100% 29.96 in 5.0 mi East 4.6 mph - 0.03 in   Overcast
5:53 PM 68.0 °F 66.0 °F 93% 29.97 in 8.0 mi East 8.1 mph - N/A   Overcast
6:00 PM 68.0 °F 66.0 °F 93% 29.99 in 7.0 mi ESE 8.1 mph - N/A   Overcast
6:41 PM 69.1 °F 66.0 °F 90% 29.98 in 7.0 mi East 8.1 mph - N/A   Overcast
6:53 PM 69.1 °F 66.0 °F 90% 29.96 in 7.0 mi East 8.1 mph - N/A   Overcast
7:16 PM 68.0 °F 64.9 °F 90% 29.98 in 7.0 mi ESE 9.2 mph - N/A   Overcast
7:53 PM 68.0 °F 64.9 °F 90% 29.96 in 7.0 mi East 5.8 mph - N/A   Overcast
8:53 PM 66.9 °F 64.9 °F 93% 29.97 in 9.0 mi East 9.2 mph - N/A   Overcast
9:09 PM 66.9 °F 64.9 °F 93% 29.99 in 8.0 mi East 4.6 mph - N/A   Overcast
9:53 PM 66.9 °F 64.9 °F 93% 29.98 in 8.0 mi East 5.8 mph - N/A   Overcast
10:53 PM 66.9 °F 64.9 °F 93% 29.98 in 7.0 mi East 4.6 mph - N/A   Overcast
11:53 PM 66.9 °F 64.9 °F 93% 29.98 in 7.0 mi East 4.6 mph - N/A   Overcast